www.pogodaiklimat.ru

Погода и климат >> Архив погоды >> Россия >> Калмыкия >> Юста


ПОГОДА в Юсте

  • Прогноз погоды в Юсте
  • Монитор погоды в Юсте

АРХИВ ПОГОДЫ в Юсте

Время (UTC), дата Ветер
(напр.,м/с)
 
Видим.   Явления Облачность Т
(С)
Тd
(С)
f
(%)
Тe
(С)
Тes
(С)
Комфортность P
(гПа)
Po
(гПа)
Тmin
(С)
Tmax
(С)
R
(мм)
R24
(мм)
S
(см)
21 11.08 З 3 10 км 3/0
[Ac trans]
+15.6 +5.7 52 +15 +15 1014.0 1013.6
00 12.08 З 4 10 км 5/0
[Ac trans]
+15.1 +4.8 50 +14 +14 1013.8 1013.4
03 12.08 З 3 20 км 8/0
[Ac trans]
+15.8 +7.3 57 +15 +16 1014.9 1014.5 +13.8
06 12.08 СЗ 6
{11}
20 км 3/0
[Ac trans]
+21.7 +6.7 38 +22 +26 комфорт 1015.5 1015.1
09 12.08 СЗ 8-13
{13}
4000 м пыльная буря {метель} 6/3 1000 м
[Cu hum As trans Ci fib]
+24.6 +4.3 27 +24 +26 комфорт 1014.7 1014.4
12 12.08 СЗ 8-12
{14}
4000 м пыльная буря {метель} 3/3 1000 м
[Cu hum Ci fib]
+26.2 +2.4 21 +25 +26 комфорт 1014.3 1014.0
15 12.08 СЗ 6-11
{13}
20 км {метель} ясно +25.0 +1.7 22 +24 +24 комфорт 1014.6 1014.2 +26.3
18 12.08 СЗ 3
{11}
10 км {метель} ясно +19.5 +1.5 30 +20 +20 1016.1 1015.7
21 12.08 З 3 10 км ясно +14.4 +2.0 43 +14 +14 1017.0 1016.6
00 13.08 З 3 10 км ясно +12.0 +3.5 56 +11 +11 1017.2 1016.9
03 13.08 СЗ 3 20 км ясно +13.4 +5.7 60 +12 +13 1018.1 1017.7 +10.7
06 13.08 СЗ 5 20 км ясно +22.0 +3.5 30 +22 +27 комфорт 1018.2 1017.8
09 13.08 СЗ 5
{11}
20 км ясно +25.1 +1.7 22 +24 +32 комфорт 1017.1 1016.8
12 13.08 СЗ 6-11
{12}
20 км ясно +27.0 -1.0 16 +25 +28 комфорт 1016.2 1015.8
15 13.08 СЗ 7-10
{13}
20 км ясно +26.1 +0.9 19 +24 +25 комфорт 1016.1 1015.7 +27.2
18 13.08 СЗ 2
{10}
10 км 3/0
[Ac trans]
+20.0 +1.1 28 +21 +21 комфорт 1017.2 1016.8
21 13.08 СЗ 2 10 км 6/0
[Ac trans Ci fib]
+15.9 +1.4 37 +16 +16 1017.6 1017.2
00 14.08 СЗ 2 10 км ясно +13.2 +1.1 44 +13 +13 1017.3 1016.9
03 14.08 З 1 20 км ясно +14.4 +2.3 44 +15 +16 1018.2 1017.8 +11.4
06 14.08 СЗ 3 20 км ясно +24.5 -0.8 19 +23 +31 комфорт 1018.2 1017.9
09 14.08 С 5 20 км ясно +28.0 +1.8 18 +26 +34 жарко 1017.1 1016.7
12 14.08 С 4 20 км ясно +29.9 +1.9 17 +28 +33 жарко 1015.6 1015.3
15 14.08 С 2 20 км ясно +29.9 +1.4 16 +27 +28 жарко 1015.1 1014.7 +30.5
18 14.08 штиль 0 10 км ясно +24.1 +2.4 24 +23 +23 комфорт 1015.5 1015.1
21 14.08 Ю 2 10 км ясно +21.4 +1.7 27 +21 +21 комфорт 1015.4 1015.0
00 15.08 Ю 3 10 км ясно +20.2 +1.2 28 +21 +21 комфорт 1014.9 1014.5
03 15.08 ЮЗ 3 20 км ясно +19.8 +1.8 30 +20 +21 1015.2 1014.8 +18.2
06 15.08 ЮЗ 1 20 км ясно +30.9 +0.1 14 +28 +39 жарко 1015.4 1015.1
09 15.08 В 2 20 км ясно +34.0 +5.4 17 +32 +47 жарко 1014.7 1014.3
12 15.08 В 3 20 км ясно +35.1 +7.2 18 +33 +40 жарко 1013.1 1012.8
15 15.08 ЮВ 3 20 км ясно +34.3 +8.1 20 +33 +33 жарко 1012.2 1011.9 +35.8
18 15.08 Ю 4 10 км ясно +27.4 +5.6 25 +26 +26 жарко 1013.3 1013.0
21 15.08 ЮВ 2 10 км ясно +22.3 +5.0 32 +23 +23 комфорт 1014.3 1013.9
00 16.08 В 2 10 км ясно +18.9 +8.6 51 +20 +20 1014.1 1013.8
03 16.08 В 3 20 км ясно +20.0 +14.1 69 +22 +23 комфорт 1013.6 1013.2 +18.5
06 16.08 В 5
{10}
20 км ясно +28.4 +12.1 36 +29 +34 жарко 1013.6 1013.2
09 16.08 ЮВ 6
{13}
20 км пыльный позёмок ясно +33.3 +6.6 19 +31 +37 жарко 1012.1 1011.8
12 16.08 ЮВ 7-11
{14}
20 км пыльный позёмок 3/0
[Cs]
+34.4 +6.0 17 +32 +34 жарко 1010.4 1010.0
15 16.08 ЮВ 6-11
{12}
20 км ясно +31.7 +4.6 18 +29 +30 жарко 1010.2 1009.8 +34.5
18 16.08 ЮВ 2
{11}
10 км 3/0
[Ac trans]
+25.3 +6.9 31 +25 +25 комфорт 1011.8 1011.4
21 16.08 В 2 10 км 3/0
[Ac trans Ci fib]
+21.3 +10.5 50 +23 +23 комфорт 1011.7 1011.3
00 17.08 В 3 10 км 6/0
[Ac trans]
+19.7 +12.1 62 +21 +21 комфорт 1010.8 1010.5
03 17.08 В 3 20 км 8/0
[Ac trans Ci fib]
+20.2 +12.9 63 +23 +23 комфорт 1010.9 1010.5 +17.8
06 17.08 ЮВ 6-10
{11}
20 км 6/0
[Ac trans Ci fib]
+30.7 +7.4 23 +29 +32 жарко 1010.7 1010.3
09 17.08 ЮВ 9-16
{17}
4000 м пыльная буря {метель} 8/0
[Ac trans Ci fib]
+34.6 +6.4 17 +32 +33 жарко 1010.0 1009.7
12 17.08 ЮВ 8-15
{16}
4000 м пыльная буря {метель} 10/0
[Ac As]
+32.3 +7.6 22 +31 +31 жарко 1010.1 1009.7
15 17.08 В 5
{13}
20 км {метель} 10/0
[Ac und]
+30.5 +9.9 28 +30 +30 жарко 1010.6 1010.3 +35.1
18 17.08 ЮВ 6-10
{10}
10 км {метель} 9/0
[Ac und]
+26.9 +13.8 44 +29 +29 жарко 1011.5 1011.2
21 17.08 В 2
{11}
10 км 8/0
[Ac trans Ci fib]
+23.5 +13.5 53 +26 +26 жарко 1011.9 1011.5
00 18.08 штиль 0 10 км 9/0
[Ac trans Ci fib]
+20.4 +12.6 61 +22 +22 комфорт 1011.9 1011.5
03 18.08 В 2 20 км 8/0
[Ac und Ci fib]
+21.3 +11.9 55 +23 +24 комфорт 1011.9 1011.6 +20.0
06 18.08 ЮВ 3 20 км 3/0
[Ac trans]
+30.0 +8.8 27 +29 +36 жарко 1011.9 1011.6
09 18.08 ЮВ 7-12
{14}
20 км пыльный позёмок 4/0
[Ac trans]
+35.5 +2.5 13 +32 +36 жарко 1011.2 1010.9
12 18.08 ЮВ 9-15
{17}
4000 м пыльная буря {метель} ясно +35.6 +4.0 14 +33 +34 жарко 1011.1 1010.8
15 18.08 ЮВ 8-15
{17}
10 км пыльная буря {метель} 4/0
[Ac trans]
+33.1 +4.6 17 +31 +31 жарко 1012.1 1011.7 +37.0
18 18.08 В 3
{13}
10 км {метель} 8/0
[Ac cuf]
+28.7 +6.3 24 +28 +28 жарко 1013.8 1013.5

 

Местоположение метеостанции Юста (Калмыкия, Россия): широта 47.13 долгота 46.32 высота над уровнем моря 3 м.

В архиве по умолчанию представлена погода в Юсте за последнюю неделю. Архивные данные за месяц целиком и за предыдущие месяцы, начиная с января 2011 года, Вы можете получить, выбрав интересующий диапазон дат из раскрывающегося списка и нажав кнопку "Ввод!".


*Определитесь, кто Вы:
робот инопланетянин человек

Внимание! Время в таблицах - всемирное. Для получения местного времени необходимо прибавить поправку, которая равна 3 ч.

Смотрите также архив погоды в соседних городах и на ближайших метеорологических станциях:

Погода в Харабали (Астраханская область, Россия) (76 км)
Погода в Утте (Калмыкия, Россия) (88 км)
Погода в Черный Яр (Астраханская область, Россия) (106 км)
Погода в Досанге (Астраханская область, Россия) (124 км)
Погода в Верхнем Баскунчаке (Астраханская область, Россия) (125 км)
Погода в Яшкуле (Калмыкия, Россия) (129 км)
Погода в Кетченерах (Калмыкия, Россия) (134 км)
Погода в Малых Дербетах (Калмыкия, Россия) (151 км)
Погода в Астрахани (Астраханская область, Россия) (158 км)
Погода в Лимане (Астраханская область, Россия) (163 км)

Пояснения к столбцам:

Ветер - указаны скорость ветра в м/с - средняя за 10 мин, порывы в срок и между сроками (в фигурных скобках) и направление, откуда дует ветер: С - северный, СВ - северо-восточный, В - восточный, ЮВ - юго-восточный, Ю - южный, ЮЗ - юго-западный, З - западный, СЗ - северо-западный.
Видимость - горизонтальная дальность видимости в метрах или километрах. При видимости от 1 до 10 км при отсутствии осадков обычно наблюдается дымка, при ухудшении видимости до 1 км и менее - туман. В сухую погоду видимость может ухудшаться дымом, пылью или мглою.
Явления - указаны атмосферные явления, наблюдавшиеся в срок или в последний час перед сроком; фигурными скобками обозначены явления, наблюдавшиеся между сроками (за 1-3 часа до срока); квадратными скобками обозначены град или гололедные отложения с указанием их диаметра в мм.
Облачность - указаны через наклонную черту общая и нижняя облачность в баллах и высота нижней границы облаков в метрах; квадратными скобками обозначены формы облаков: Ci - перистые, Cs - перисто-слоистые, Cc - перисто-кучевые, Ac - высококучевые, As - высокослоистые, Sc - слоисто-кучевые, Ns - слоисто-дождевые, Cu - кучевые, Cb - кучево-дождевые. Подробнее классификацию облаков см. в Атласе облаков (PDF).
T - Температура воздуха - температура, измеренная на высоте 2 м над землей.
Td - Температура точки росы - температура, при понижении до которой содержащийся в воздухе водяной пар достигнет насыщения.
f - Относительная влажность воздуха - влажноcть воздуха, измеренная на высоте 2 м над землей.
Te - Эффективная температура - температура, которую ощущает одетый по сезону человек в тени. Характеристика душности погоды. При расчете учитывается влияние влажности воздуха и скорости ветра на теплоощущения человека.
Tes - Эффективная температура на солнце - температура, которую ощущает человек, с поправкой на солнечный нагрев. Характеристика знойности погоды. Зависит от высоты солнца над горизонтом, облачности и скорости ветра. Ночью, в пасмурную погоду, а также при ветре 12 м/с и более поправка равна нулю.
P - Атмосферное давление - приведенное к уровню моря атмосферное давление.
Po - Атмосферное давление - измеренное на уровне метеостанции атмосферное давление.
Tmin - Минимальная температура - минимум температуры воздуха на высоте 2 м над землей.
Tmax - Максимальная температура - максимум температуры воздуха на высоте 2 м над землей.
R - Количество осадков - Количество выпавших осадков за период времени, мм. При наведении курсора мыши на число - период времени, за который выпало указанное количество осадков.
R24 - Количество осадков - Количество выпавших осадков за 24 часа, мм.
S - Снежный покров - Высота снежного покрова, см. При наведении курсора мыши на число - состояние снежного покрова и степень покрытия местности в баллах.